Time,TemperatureF,DewpointF,PressureIn,WindDirection,WindDirectionDegrees,WindSpeedMPH,WindSpeedGustMPH,Humidity,HourlyPrecipIn,Conditions,Clouds,dailyrainin,SolarRadiationWatts/m^2,SoftwareType,DateUTC
2013-08-11 00:00:00,81.6,74.5,29.92,SSE,167,0.0,0.0,79,0.00,,,0.00,0,Wunderground v.1.15,2013-08-11 05:00:00,
2013-08-11 00:05:00,81.6,74.8,29.92,SSE,167,0.0,0.0,80,0.00,,,0.00,0,Wunderground v.1.15,2013-08-11 05:05:00,
2013-08-11 00:10:00,81.4,74.6,29.92,SSE,167,0.0,0.0,80,0.00,,,0.00,0,Wunderground v.1.15,2013-08-11 05:10:00,
2013-08-11 00:20:00,81.2,75.2,29.92,SSE,167,0.0,0.0,82,0.00,,,0.00,0,Wunderground v.1.15,2013-08-11 05:20:00,
2013-08-11 00:35:00,80.9,75.2,29.92,SSE,167,0.0,0.0,83,0.00,,,0.00,0,Wunderground v.1.15,2013-08-11 05:35:00,
2013-08-11 00:40:00,80.8,75.2,29.92,SSE,167,0.0,0.0,83,0.00,,,0.00,0,Wunderground v.1.15,2013-08-11 05:40:00,
2013-08-11 00:45:00,80.7,75.4,29.92,SSE,167,0.0,0.0,84,0.00,,,0.00,0,Wunderground v.1.15,2013-08-11 05:45:00,
2013-08-11 00:50:00,80.7,75.4,29.92,SSE,167,1.0,1.0,84,0.00,,,0.00,0,Wunderground v.1.15,2013-08-11 05:50:00,
2013-08-11 00:55:00,80.6,75.3,29.92,SSE,166,1.0,1.0,84,0.00,,,0.00,0,Wunderground v.1.15,2013-08-11 05:55:00,
2013-08-11 01:00:00,80.6,75.7,29.91,SSE,166,0.0,0.0,85,0.00,,,0.00,0,Wunderground v.1.15,2013-08-11 06:00:00,
2013-08-11 01:10:00,80.5,75.2,29.91,SSE,167,0.0,0.0,84,0.00,,,0.00,0,Wunderground v.1.15,2013-08-11 06:10:00,
2013-08-11 01:15:00,80.4,75.1,29.91,SSE,166,0.0,0.0,84,0.00,,,0.00,0,Wunderground v.1.15,2013-08-11 06:15:00,
2013-08-11 01:20:00,80.4,75.1,29.91,SSE,167,0.0,0.0,84,0.00,,,0.00,0,Wunderground v.1.15,2013-08-11 06:20:00,
2013-08-11 01:25:00,80.3,75.4,29.91,SSE,167,0.0,0.0,85,0.00,,,0.00,0,Wunderground v.1.15,2013-08-11 06:25:00,
2013-08-11 01:30:00,80.3,75.4,29.91,SSE,167,0.0,0.0,85,0.00,,,0.00,0,Wunderground v.1.15,2013-08-11 06:30:00,
2013-08-11 01:35:00,80.2,75.3,29.91,SSE,166,0.0,0.0,85,0.00,,,0.00,0,Wunderground v.1.15,2013-08-11 06:35:00,
2013-08-11 01:45:00,80.1,75.2,29.91,SSE,166,0.0,0.0,85,0.00,,,0.00,0,Wunderground v.1.15,2013-08-11 06:45:00,
2013-08-11 01:50:00,80.0,75.1,29.91,SSE,167,0.0,0.0,85,0.00,,,0.00,0,Wunderground v.1.15,2013-08-11 06:50:00,
2013-08-11 01:55:00,79.9,75.0,29.91,SSE,167,0.0,0.0,85,0.00,,,0.00,0,Wunderground v.1.15,2013-08-11 06:55:00,
2013-08-11 02:05:00,79.7,74.8,29.91,SSE,167,0.0,0.0,85,0.00,,,0.00,0,Wunderground v.1.15,2013-08-11 07:05:00,
2013-08-11 02:10:00,79.6,75.0,29.91,SSE,167,0.0,0.0,86,0.00,,,0.00,0,Wunderground v.1.15,2013-08-11 07:10:00,
2013-08-11 02:15:00,79.5,74.9,29.91,SSE,167,0.0,0.0,86,0.00,,,0.00,0,Wunderground v.1.15,2013-08-11 07:15:00,
2013-08-11 02:20:00,79.4,74.8,29.91,SSE,167,0.0,0.0,86,0.00,,,0.00,0,Wunderground v.1.15,2013-08-11 07:20:00,
2013-08-11 02:30:00,79.3,74.7,29.91,SSE,167,0.0,0.0,86,0.00,,,0.00,0,Wunderground v.1.15,2013-08-11 07:30:00,
2013-08-11 02:35:00,79.2,74.6,29.91,SSE,167,0.0,0.0,86,0.00,,,0.00,0,Wunderground v.1.15,2013-08-11 07:35:00,
2013-08-11 02:40:00,79.1,74.5,29.91,SSE,167,0.0,0.0,86,0.00,,,0.00,0,Wunderground v.1.15,2013-08-11 07:40:00,
2013-08-11 02:50:00,78.9,74.4,29.91,SSE,167,0.0,2.0,86,0.00,,,0.00,0,Wunderground v.1.15,2013-08-11 07:50:00,
2013-08-11 02:55:00,78.9,74.7,29.91,SSE,167,1.0,2.0,87,0.00,,,0.00,0,Wunderground v.1.15,2013-08-11 07:55:00,
2013-08-11 03:05:00,78.8,74.6,29.91,SSE,167,1.0,1.0,87,0.00,,,0.00,0,Wunderground v.1.15,2013-08-11 08:05:00,
2013-08-11 03:10:00,78.8,74.6,29.91,SSE,167,1.0,1.0,87,0.00,,,0.00,0,Wunderground v.1.15,2013-08-11 08:10:00,
2013-08-11 03:15:00,78.8,74.9,29.91,SSE,167,0.0,1.0,88,0.00,,,0.00,0,Wunderground v.1.15,2013-08-11 08:15:00,
2013-08-11 03:20:00,78.7,74.8,29.91,SSE,165,0.0,0.0,88,0.00,,,0.00,0,Wunderground v.1.15,2013-08-11 08:20:00,
2013-08-11 03:25:00,78.7,74.8,29.91,SSE,165,0.0,0.0,88,0.00,,,0.00,0,Wunderground v.1.15,2013-08-11 08:25:00,
2013-08-11 03:30:00,78.7,74.8,29.91,SSE,165,0.0,0.0,88,0.00,,,0.00,0,Wunderground v.1.15,2013-08-11 08:30:00,
2013-08-11 03:35:00,78.7,74.8,29.91,SSE,165,0.0,0.0,88,0.00,,,0.00,0,Wunderground v.1.15,2013-08-11 08:35:00,
2013-08-11 03:55:00,78.5,74.6,29.90,SSE,165,0.0,0.0,88,0.00,,,0.00,0,Wunderground v.1.15,2013-08-11 08:55:00,
2013-08-11 04:00:00,78.5,74.6,29.90,SSE,165,0.0,0.0,88,0.00,,,0.00,0,Wunderground v.1.15,2013-08-11 09:00:00,
2013-08-11 04:05:00,78.4,74.5,29.90,SSE,165,0.0,0.0,88,0.00,,,0.00,0,Wunderground v.1.15,2013-08-11 09:05:00,
2013-08-11 04:30:00,78.2,74.7,29.91,SSE,164,0.0,0.0,89,0.00,,,0.00,0,Wunderground v.1.15,2013-08-11 09:30:00,
2013-08-11 04:35:00,78.2,74.7,29.91,SSE,165,0.0,0.0,89,0.00,,,0.00,0,Wunderground v.1.15,2013-08-11 09:35:00,
2013-08-11 04:40:00,78.1,74.6,29.91,SSE,164,0.0,0.0,89,0.00,,,0.00,0,Wunderground v.1.15,2013-08-11 09:40:00,
2013-08-11 04:50:00,78.1,74.6,29.91,SSE,165,0.0,0.0,89,0.00,,,0.00,0,Wunderground v.1.15,2013-08-11 09:50:00,
2013-08-11 04:55:00,78.1,74.9,29.91,SSE,164,0.0,0.0,90,0.00,,,0.00,0,Wunderground v.1.15,2013-08-11 09:55:00,
2013-08-11 05:00:00,78.1,74.9,29.91,SSE,164,0.0,0.0,90,0.00,,,0.00,0,Wunderground v.1.15,2013-08-11 10:00:00,
2013-08-11 05:10:00,78.0,74.8,29.91,SSE,164,0.0,0.0,90,0.00,,,0.00,0,Wunderground v.1.15,2013-08-11 10:10:00,
2013-08-11 05:15:00,78.0,74.8,29.92,SSE,164,0.0,0.0,90,0.00,,,0.00,0,Wunderground v.1.15,2013-08-11 10:15:00,
2013-08-11 05:20:00,77.9,74.7,29.92,SSE,164,0.0,0.0,90,0.00,,,0.00,0,Wunderground v.1.15,2013-08-11 10:20:00,
2013-08-11 05:25:00,77.9,74.7,29.92,SSE,165,0.0,0.0,90,0.00,,,0.00,0,Wunderground v.1.15,2013-08-11 10:25:00,
2013-08-11 05:30:00,77.9,74.7,29.92,SSE,165,0.0,0.0,90,0.00,,,0.00,0,Wunderground v.1.15,2013-08-11 10:30:00,
2013-08-11 05:40:00,77.8,74.6,29.92,SSE,165,0.0,0.0,90,0.00,,,0.00,0,Wunderground v.1.15,2013-08-11 10:40:00,
2013-08-11 05:50:00,77.7,74.9,29.92,SSE,164,0.0,0.0,91,0.00,,,0.00,0,Wunderground v.1.15,2013-08-11 10:50:00,
2013-08-11 05:55:00,77.7,74.9,29.92,SSE,165,0.0,0.0,91,0.00,,,0.00,0,Wunderground v.1.15,2013-08-11 10:55:00,
2013-08-11 06:00:00,77.6,74.8,29.92,SSE,165,0.0,0.0,91,0.00,,,0.00,0,Wunderground v.1.15,2013-08-11 11:00:00,
2013-08-11 06:05:00,77.6,74.8,29.92,SSE,164,0.0,0.0,91,0.00,,,0.00,0,Wunderground v.1.15,2013-08-11 11:05:00,
2013-08-11 06:10:00,77.6,74.8,29.92,SSE,165,0.0,0.0,91,0.00,,,0.00,0,Wunderground v.1.15,2013-08-11 11:10:00,
2013-08-11 06:15:00,77.5,74.7,29.93,SSE,164,0.0,0.0,91,0.00,,,0.00,0,Wunderground v.1.15,2013-08-11 11:15:00,
2013-08-11 06:20:00,77.4,74.6,29.93,SSE,165,0.0,0.0,91,0.00,,,0.00,0,Wunderground v.1.15,2013-08-11 11:20:00,
2013-08-11 06:30:00,77.4,74.6,29.93,SSE,165,0.0,0.0,91,0.00,,,0.00,0,Wunderground v.1.15,2013-08-11 11:30:00,
2013-08-11 06:40:00,77.4,74.9,29.93,SSE,165,0.0,0.0,92,0.00,,,0.00,0,Wunderground v.1.15,2013-08-11 11:40:00,
2013-08-11 06:45:00,77.3,74.8,29.94,SSE,165,0.0,0.0,92,0.00,,,0.00,0,Wunderground v.1.15,2013-08-11 11:45:00,
2013-08-11 06:55:00,77.2,74.7,29.94,SSE,164,0.0,0.0,92,0.00,,,0.00,0,Wunderground v.1.15,2013-08-11 11:55:00,
2013-08-11 07:00:00,77.2,74.7,29.94,SSE,164,0.0,0.0,92,0.00,,,0.00,0,Wunderground v.1.15,2013-08-11 12:00:00,
2013-08-11 07:05:00,77.1,74.6,29.94,SSE,165,0.0,0.0,92,0.00,,,0.00,7,Wunderground v.1.15,2013-08-11 12:05:00,
2013-08-11 07:10:00,77.1,74.6,29.94,SSE,165,0.0,0.0,92,0.00,,,0.00,11,Wunderground v.1.15,2013-08-11 12:10:00,
2013-08-11 07:20:00,77.0,74.5,29.94,SSE,164,0.0,0.0,92,0.00,,,0.00,18,Wunderground v.1.15,2013-08-11 12:20:00,
2013-08-11 07:25:00,77.0,74.5,29.94,SSE,165,0.0,0.0,92,0.00,,,0.00,21,Wunderground v.1.15,2013-08-11 12:25:00,
2013-08-11 07:35:00,76.9,74.4,29.95,SSE,165,0.0,0.0,92,0.00,,,0.00,28,Wunderground v.1.15,2013-08-11 12:35:00,
2013-08-11 07:40:00,76.9,74.4,29.95,SSE,165,0.0,0.0,92,0.00,,,0.00,30,Wunderground v.1.15,2013-08-11 12:40:00,
2013-08-11 07:50:00,76.9,74.4,29.95,SSE,165,0.0,0.0,92,0.00,,,0.00,46,Wunderground v.1.15,2013-08-11 12:50:00,
2013-08-11 07:55:00,77.0,74.5,29.95,SSE,165,0.0,0.0,92,0.00,,,0.00,49,Wunderground v.1.15,2013-08-11 12:55:00,
2013-08-11 08:00:00,77.1,74.9,29.95,SSE,165,0.0,0.0,93,0.00,,,0.00,70,Wunderground v.1.15,2013-08-11 13:00:00,
2013-08-11 08:05:00,77.4,75.2,29.95,SSE,165,0.0,0.0,93,0.00,,,0.00,56,Wunderground v.1.15,2013-08-11 13:05:00,
2013-08-11 08:10:00,77.6,75.4,29.95,SSE,165,0.0,0.0,93,0.00,,,0.00,74,Wunderground v.1.15,2013-08-11 13:10:00,
2013-08-11 08:15:00,77.8,75.6,29.95,SSE,165,0.0,0.0,93,0.00,,,0.00,77,Wunderground v.1.15,2013-08-11 13:15:00,
2013-08-11 08:20:00,77.9,75.7,29.95,SSE,165,0.0,0.0,93,0.00,,,0.00,125,Wunderground v.1.15,2013-08-11 13:20:00,
2013-08-11 08:25:00,78.0,75.8,29.95,SSE,165,0.0,0.0,93,0.00,,,0.00,83,Wunderground v.1.15,2013-08-11 13:25:00,
2013-08-11 08:30:00,78.2,76.0,29.96,SSE,164,0.0,0.0,93,0.00,,,0.00,162,Wunderground v.1.15,2013-08-11 13:30:00,
2013-08-11 08:45:00,78.7,76.2,29.96,SSE,165,0.0,0.0,92,0.00,,,0.00,283,Wunderground v.1.15,2013-08-11 13:45:00,
2013-08-11 08:50:00,78.8,76.3,29.96,SSE,165,0.0,0.0,92,0.00,,,0.00,271,Wunderground v.1.15,2013-08-11 13:50:00,
2013-08-11 08:55:00,79.2,76.7,29.96,SSE,165,0.0,0.0,92,0.00,,,0.00,325,Wunderground v.1.15,2013-08-11 13:55:00,
2013-08-11 09:05:00,80.1,76.6,29.96,SSE,165,0.0,0.0,89,0.00,,,0.00,387,Wunderground v.1.15,2013-08-11 14:05:00,
2013-08-11 09:10:00,81.2,76.6,29.96,SSE,165,0.0,0.0,86,0.00,,,0.00,424,Wunderground v.1.15,2013-08-11 14:10:00,
2013-08-11 09:25:00,82.7,76.3,29.96,SSE,165,0.0,0.0,81,0.00,,,0.00,155,Wunderground v.1.15,2013-08-11 14:25:00,
2013-08-11 09:35:00,82.7,77.0,29.97,SSE,165,0.0,0.0,83,0.00,,,0.00,244,Wunderground v.1.15,2013-08-11 14:35:00,
2013-08-11 09:50:00,82.7,75.9,29.96,SSE,165,0.0,0.0,80,0.00,,,0.00,165,Wunderground v.1.15,2013-08-11 14:50:00,
2013-08-11 09:55:00,83.2,76.0,29.96,SSE,165,0.0,0.0,79,0.00,,,0.00,496,Wunderground v.1.15,2013-08-11 14:55:00,
2013-08-11 10:00:00,83.6,76.8,29.96,SSE,165,0.0,0.0,80,0.00,,,0.00,626,Wunderground v.1.15,2013-08-11 15:00:00,
2013-08-11 10:05:00,83.8,77.0,29.96,SSE,165,0.0,0.0,80,0.00,,,0.00,220,Wunderground v.1.15,2013-08-11 15:05:00,
2013-08-11 10:10:00,84.2,77.0,29.96,SSE,165,0.0,0.0,79,0.00,,,0.00,265,Wunderground v.1.15,2013-08-11 15:10:00,
2013-08-11 10:25:00,86.1,76.8,29.96,SSE,156,0.0,0.0,74,0.00,,,0.00,652,Wunderground v.1.15,2013-08-11 15:25:00,
2013-08-11 10:35:00,86.5,75.5,29.96,SSE,155,0.0,0.0,70,0.00,,,0.00,710,Wunderground v.1.15,2013-08-11 15:35:00,
2013-08-11 10:40:00,86.8,76.3,29.96,SE,144,0.0,0.0,71,0.00,,,0.00,708,Wunderground v.1.15,2013-08-11 15:40:00,
2013-08-11 10:55:00,86.8,75.4,29.96,SE,146,0.0,0.0,69,0.00,,,0.00,724,Wunderground v.1.15,2013-08-11 15:55:00,
2013-08-11 11:05:00,88.2,76.3,29.96,SE,145,0.0,0.0,68,0.00,,,0.00,782,Wunderground v.1.15,2013-08-11 16:05:00,
2013-08-11 11:10:00,89.2,76.4,29.96,SE,145,0.0,0.0,66,0.00,,,0.00,795,Wunderground v.1.15,2013-08-11 16:10:00,
2013-08-11 11:15:00,90.5,75.7,29.96,SE,145,0.0,0.0,62,0.00,,,0.00,870,Wunderground v.1.15,2013-08-11 16:15:00,
2013-08-11 11:20:00,90.8,75.5,29.96,SE,144,0.0,0.0,61,0.00,,,0.00,886,Wunderground v.1.15,2013-08-11 16:20:00,
2013-08-11 11:25:00,90.1,76.3,29.96,SE,146,0.0,0.0,64,0.00,,,0.00,914,Wunderground v.1.15,2013-08-11 16:25:00,
2013-08-11 11:35:00,89.7,75.4,29.95,SE,134,0.0,0.0,63,0.00,,,0.00,935,Wunderground v.1.15,2013-08-11 16:35:00,
2013-08-11 11:40:00,89.8,75.5,29.95,SE,135,0.0,0.0,63,0.00,,,0.00,1000,Wunderground v.1.15,2013-08-11 16:40:00,
2013-08-11 11:45:00,90.7,75.9,29.95,SSE,167,2.0,3.0,62,0.00,,,0.00,1027,Wunderground v.1.15,2013-08-11 16:45:00,
2013-08-11 11:50:00,91.5,76.1,29.95,South,169,3.0,4.0,61,0.00,,,0.00,1023,Wunderground v.1.15,2013-08-11 16:50:00,
2013-08-11 11:55:00,90.2,74.9,29.95,South,175,3.0,4.0,61,0.00,,,0.00,327,Wunderground v.1.15,2013-08-11 16:55:00,
2013-08-11 12:05:00,88.9,74.7,29.95,SSW,192,1.0,1.0,63,0.00,,,0.00,225,Wunderground v.1.15,2013-08-11 17:05:00,
2013-08-11 12:10:00,88.1,73.9,29.95,SSW,192,1.0,1.0,63,0.00,,,0.00,202,Wunderground v.1.15,2013-08-11 17:10:00,
2013-08-11 12:15:00,87.7,74.9,29.95,SSW,192,0.0,1.0,66,0.00,,,0.00,188,Wunderground v.1.15,2013-08-11 17:15:00,
2013-08-11 12:25:00,87.1,74.4,29.95,SSW,192,0.0,0.0,66,0.00,,,0.00,267,Wunderground v.1.15,2013-08-11 17:25:00,
2013-08-11 12:30:00,87.3,74.5,29.95,SSW,192,0.0,0.0,66,0.00,,,0.00,373,Wunderground v.1.15,2013-08-11 17:30:00,
2013-08-11 12:40:00,89.3,73.6,29.95,SSW,192,0.0,0.0,60,0.00,,,0.00,253,Wunderground v.1.15,2013-08-11 17:40:00,
2013-08-11 12:45:00,91.1,74.8,29.93,SSW,192,0.0,0.0,59,0.00,,,0.00,1000,Wunderground v.1.15,2013-08-11 17:45:00,
2013-08-11 12:50:00,92.8,75.8,29.93,SSW,192,0.0,0.0,58,0.00,,,0.00,993,Wunderground v.1.15,2013-08-11 17:50:00,
2013-08-11 12:55:00,93.7,74.5,29.93,SSW,192,0.0,0.0,54,0.00,,,0.00,211,Wunderground v.1.15,2013-08-11 17:55:00,
2013-08-11 13:35:00,91.9,74.5,29.92,SW,219,0.0,0.0,57,0.00,,,0.00,937,Wunderground v.1.15,2013-08-11 18:35:00,
2013-08-11 13:45:00,93.0,73.3,29.91,NE,55,1.0,1.0,53,0.00,,,0.00,244,Wunderground v.1.15,2013-08-11 18:45:00,
2013-08-11 13:50:00,91.4,73.0,29.91,NE,55,1.0,1.0,55,0.00,,,0.00,202,Wunderground v.1.15,2013-08-11 18:50:00,
2013-08-11 13:55:00,92.2,72.6,29.91,NE,54,0.0,1.0,53,0.00,,,0.00,190,Wunderground v.1.15,2013-08-11 18:55:00,
2013-08-11 14:05:00,94.1,73.8,29.90,NE,52,0.0,0.0,52,0.00,,,0.00,1005,Wunderground v.1.15,2013-08-11 19:05:00,
2013-08-11 14:15:00,93.3,72.5,29.90,ENE,69,0.0,0.0,51,0.00,,,0.00,236,Wunderground v.1.15,2013-08-11 19:15:00,
2013-08-11 14:20:00,92.3,73.8,29.90,ENE,68,0.0,0.0,55,0.00,,,0.00,223,Wunderground v.1.15,2013-08-11 19:20:00,
2013-08-11 14:25:00,92.3,73.8,29.90,ENE,75,0.0,0.0,55,0.00,,,0.00,974,Wunderground v.1.15,2013-08-11 19:25:00,
2013-08-11 14:30:00,94.5,71.8,29.89,ENE,75,0.0,0.0,48,0.00,,,0.00,928,Wunderground v.1.15,2013-08-11 19:30:00,
2013-08-11 14:35:00,95.6,74.6,29.89,East,80,0.0,2.0,51,0.00,,,0.00,928,Wunderground v.1.15,2013-08-11 19:35:00,
2013-08-11 14:45:00,96.3,72.2,29.88,East,96,1.0,1.0,46,0.00,,,0.00,991,Wunderground v.1.15,2013-08-11 19:45:00,
2013-08-11 14:50:00,96.2,73.3,29.88,East,97,0.0,0.0,48,0.00,,,0.00,1009,Wunderground v.1.15,2013-08-11 19:50:00,
2013-08-11 14:55:00,96.5,73.0,29.88,ENE,74,1.0,1.0,47,0.00,,,0.00,243,Wunderground v.1.15,2013-08-11 19:55:00,
2013-08-11 15:10:00,93.8,74.1,29.87,ENE,75,0.0,0.0,53,0.00,,,0.00,269,Wunderground v.1.15,2013-08-11 20:10:00,
2013-08-11 15:20:00,95.0,74.0,29.86,ENE,69,1.0,1.0,51,0.00,,,0.00,963,Wunderground v.1.15,2013-08-11 20:20:00,
2013-08-11 15:25:00,96.1,73.2,29.86,ENE,69,0.0,3.0,48,0.00,,,0.00,789,Wunderground v.1.15,2013-08-11 20:25:00,
2013-08-11 15:30:00,96.8,73.2,29.85,East,88,1.0,1.0,47,0.00,,,0.00,838,Wunderground v.1.15,2013-08-11 20:30:00,
2013-08-11 15:45:00,96.2,72.7,29.85,NE,51,2.0,2.0,47,0.00,,,0.00,844,Wunderground v.1.15,2013-08-11 20:45:00,
2013-08-11 15:55:00,95.7,71.6,29.85,NE,51,0.0,1.0,46,0.00,,,0.00,863,Wunderground v.1.15,2013-08-11 20:55:00,
2013-08-11 16:00:00,96.6,71.8,29.84,East,80,1.0,1.0,45,0.00,,,0.00,401,Wunderground v.1.15,2013-08-11 21:00:00,
2013-08-11 16:10:00,94.9,71.5,29.84,ENE,59,2.0,2.0,47,0.00,,,0.00,156,Wunderground v.1.15,2013-08-11 21:10:00,
2013-08-11 16:15:00,94.1,72.0,29.84,ENE,58,2.0,2.0,49,0.00,,,0.00,176,Wunderground v.1.15,2013-08-11 21:15:00,
2013-08-11 16:20:00,94.0,71.3,29.84,NE,55,2.0,2.0,48,0.00,,,0.00,193,Wunderground v.1.15,2013-08-11 21:20:00,
2013-08-11 16:25:00,94.5,71.8,29.84,NE,53,2.0,6.0,48,0.00,,,0.00,747,Wunderground v.1.15,2013-08-11 21:25:00,
2013-08-11 16:30:00,96.2,72.7,29.83,NE,56,1.0,1.0,47,0.00,,,0.00,731,Wunderground v.1.15,2013-08-11 21:30:00,
2013-08-11 16:35:00,96.0,72.5,29.83,NE,53,1.0,1.0,47,0.00,,,0.00,661,Wunderground v.1.15,2013-08-11 21:35:00,
2013-08-11 16:40:00,95.1,71.7,29.83,ENE,57,1.0,1.0,47,0.00,,,0.00,192,Wunderground v.1.15,2013-08-11 21:40:00,
2013-08-11 16:45:00,94.3,71.0,29.84,ENE,57,0.0,1.0,47,0.00,,,0.00,209,Wunderground v.1.15,2013-08-11 21:45:00,
2013-08-11 16:55:00,95.5,72.1,29.84,ENE,57,0.0,0.0,47,0.00,,,0.00,696,Wunderground v.1.15,2013-08-11 21:55:00,
2013-08-11 17:10:00,97.8,70.8,29.83,East,80,1.0,1.0,42,0.00,,,0.00,601,Wunderground v.1.15,2013-08-11 22:10:00,
2013-08-11 17:15:00,98.0,72.4,29.83,East,84,1.0,1.0,44,0.00,,,0.00,497,Wunderground v.1.15,2013-08-11 22:15:00,
2013-08-11 17:25:00,95.4,70.7,29.83,East,84,0.0,1.0,45,0.00,,,0.00,155,Wunderground v.1.15,2013-08-11 22:25:00,
2013-08-11 17:35:00,94.5,71.2,29.83,East,80,0.0,0.0,47,0.00,,,0.00,188,Wunderground v.1.15,2013-08-11 22:35:00,
2013-08-11 17:40:00,95.3,70.6,29.83,ENE,67,1.0,1.0,45,0.00,,,0.00,123,Wunderground v.1.15,2013-08-11 22:40:00,
2013-08-11 17:45:00,94.2,73.3,29.85,ESE,117,5.0,11.0,51,0.00,,,0.00,84,Wunderground v.1.15,2013-08-11 22:45:00,
2013-08-11 17:55:00,89.7,73.5,29.85,East,98,15.0,18.0,59,0.00,,,0.00,93,Wunderground v.1.15,2013-08-11 22:55:00,
2013-08-11 18:00:00,87.7,74.0,29.88,ESE,109,14.0,14.0,64,0.00,,,0.00,84,Wunderground v.1.15,2013-08-11 23:00:00,
2013-08-11 18:10:00,84.8,73.9,29.88,SE,132,12.0,12.0,70,0.00,,,0.00,107,Wunderground v.1.15,2013-08-11 23:10:00,
2013-08-11 18:15:00,83.7,74.1,29.90,East,101,11.0,12.0,73,0.00,,,0.00,125,Wunderground v.1.15,2013-08-11 23:15:00,
2013-08-11 18:25:00,81.7,73.8,29.90,SE,125,6.0,10.0,77,0.00,,,0.00,153,Wunderground v.1.15,2013-08-11 23:25:00,
2013-08-11 18:30:00,80.5,74.1,29.91,SE,130,4.0,4.0,81,0.00,,,0.00,162,Wunderground v.1.15,2013-08-11 23:30:00,
2013-08-11 18:35:00,80.0,74.0,29.91,SE,130,4.0,4.0,82,0.00,,,0.00,174,Wunderground v.1.15,2013-08-11 23:35:00,
2013-08-11 18:45:00,79.9,73.9,29.89,South,171,2.0,7.0,82,0.00,,,0.00,118,Wunderground v.1.15,2013-08-11 23:45:00,
2013-08-11 18:50:00,79.9,73.9,29.89,ESE,123,1.0,1.0,82,0.00,,,0.00,98,Wunderground v.1.15,2013-08-11 23:50:00,
2013-08-11 18:55:00,79.9,73.9,29.89,SE,130,1.0,1.0,82,0.00,,,0.00,102,Wunderground v.1.15,2013-08-11 23:55:00,
2013-08-11 19:05:00,80.4,74.0,29.89,SE,133,0.0,0.0,81,0.00,,,0.00,111,Wunderground v.1.15,2013-08-12 00:05:00,
2013-08-11 19:15:00,80.9,74.5,29.89,ESE,123,1.0,1.0,81,0.00,,,0.00,116,Wunderground v.1.15,2013-08-12 00:15:00,
2013-08-11 19:20:00,81.1,75.1,29.89,ESE,122,2.0,2.0,82,0.00,,,0.00,105,Wunderground v.1.15,2013-08-12 00:20:00,
2013-08-11 19:25:00,81.0,75.0,29.89,ESE,115,2.0,2.0,82,0.00,,,0.00,102,Wunderground v.1.15,2013-08-12 00:25:00,
2013-08-11 19:40:00,80.3,75.7,29.90,ESE,116,2.0,2.0,86,0.00,,,0.00,74,Wunderground v.1.15,2013-08-12 00:40:00,
2013-08-11 19:45:00,80.0,75.4,29.89,ESE,118,1.0,2.0,86,0.00,,,0.00,60,Wunderground v.1.15,2013-08-12 00:45:00,
2013-08-11 19:55:00,79.9,75.7,29.89,ESE,118,0.0,1.0,87,0.00,,,0.00,33,Wunderground v.1.15,2013-08-12 00:55:00,
2013-08-11 20:00:00,79.8,75.9,29.89,ESE,119,0.0,0.0,88,0.00,,,0.00,25,Wunderground v.1.15,2013-08-12 01:00:00,
2013-08-11 20:05:00,79.9,75.7,29.89,ESE,113,0.0,0.0,87,0.00,,,0.00,19,Wunderground v.1.15,2013-08-12 01:05:00,
2013-08-11 20:10:00,79.9,75.7,29.89,ESE,111,0.0,0.0,87,0.00,,,0.00,19,Wunderground v.1.15,2013-08-12 01:10:00,
2013-08-11 20:20:00,79.7,75.5,29.89,ESE,113,0.0,0.0,87,0.00,,,0.00,0,Wunderground v.1.15,2013-08-12 01:20:00,
2013-08-11 20:25:00,79.6,75.4,29.89,ESE,113,0.0,0.0,87,0.00,,,0.00,0,Wunderground v.1.15,2013-08-12 01:25:00,
2013-08-11 20:30:00,79.6,75.4,29.89,ESE,113,0.0,0.0,87,0.00,,,0.00,0,Wunderground v.1.15,2013-08-12 01:30:00,
2013-08-11 20:35:00,79.5,75.3,29.89,ESE,113,0.0,0.0,87,0.00,,,0.00,0,Wunderground v.1.15,2013-08-12 01:35:00,
2013-08-11 20:40:00,79.4,74.8,29.89,ESE,113,0.0,0.0,86,0.00,,,0.00,0,Wunderground v.1.15,2013-08-12 01:40:00,
2013-08-11 20:45:00,79.3,74.7,29.89,ESE,113,0.0,0.0,86,0.00,,,0.00,0,Wunderground v.1.15,2013-08-12 01:45:00,
2013-08-11 20:50:00,79.2,74.6,29.89,ESE,113,0.0,0.0,86,0.00,,,0.00,0,Wunderground v.1.15,2013-08-12 01:50:00,
2013-08-11 20:55:00,79.1,74.5,29.89,ESE,113,0.0,0.0,86,0.00,,,0.00,0,Wunderground v.1.15,2013-08-12 01:55:00,
2013-08-11 21:05:00,78.9,74.4,29.90,ESE,113,0.0,0.0,86,0.00,,,0.00,0,Wunderground v.1.15,2013-08-12 02:05:00,
2013-08-11 21:10:00,78.8,74.3,29.90,ESE,113,0.0,0.0,86,0.00,,,0.00,0,Wunderground v.1.15,2013-08-12 02:10:00,
2013-08-11 21:15:00,78.8,74.3,29.90,ESE,113,0.0,0.0,86,0.00,,,0.00,0,Wunderground v.1.15,2013-08-12 02:15:00,
2013-08-11 21:20:00,78.7,74.2,29.90,ESE,113,0.0,0.0,86,0.00,,,0.00,0,Wunderground v.1.15,2013-08-12 02:20:00,
2013-08-11 21:25:00,78.7,74.2,29.90,ESE,113,0.0,0.0,86,0.00,,,0.00,0,Wunderground v.1.15,2013-08-12 02:25:00,
2013-08-11 21:35:00,78.7,74.2,29.91,ESE,113,0.0,0.0,86,0.00,,,0.00,0,Wunderground v.1.15,2013-08-12 02:35:00,
2013-08-11 21:40:00,78.7,74.2,29.91,ESE,113,0.0,0.0,86,0.00,,,0.00,0,Wunderground v.1.15,2013-08-12 02:40:00,
2013-08-11 21:50:00,78.7,74.2,29.91,ESE,113,0.0,0.0,86,0.00,,,0.00,0,Wunderground v.1.15,2013-08-12 02:50:00,
2013-08-11 22:00:00,78.6,74.1,29.92,ESE,113,0.0,0.0,86,0.00,,,0.00,0,Wunderground v.1.15,2013-08-12 03:00:00,
2013-08-11 22:05:00,78.6,74.4,29.92,ESE,113,0.0,0.0,87,0.00,,,0.00,0,Wunderground v.1.15,2013-08-12 03:05:00,
2013-08-11 22:15:00,78.7,74.5,29.92,ESE,113,0.0,0.0,87,0.00,,,0.00,0,Wunderground v.1.15,2013-08-12 03:15:00,
2013-08-11 22:20:00,78.7,74.5,29.92,ESE,113,0.0,0.0,87,0.00,,,0.00,0,Wunderground v.1.15,2013-08-12 03:20:00,
2013-08-11 22:25:00,78.7,74.5,29.92,ESE,113,0.0,0.0,87,0.00,,,0.00,0,Wunderground v.1.15,2013-08-12 03:25:00,
2013-08-11 22:30:00,78.7,74.5,29.92,ESE,113,0.0,0.0,87,0.00,,,0.00,0,Wunderground v.1.15,2013-08-12 03:30:00,
2013-08-11 22:35:00,78.8,74.6,29.92,ESE,115,0.0,0.0,87,0.00,,,0.00,0,Wunderground v.1.15,2013-08-12 03:35:00,
2013-08-11 22:45:00,79.0,74.5,29.93,ESE,114,0.0,0.0,86,0.00,,,0.00,0,Wunderground v.1.15,2013-08-12 03:45:00,
2013-08-11 22:50:00,79.1,74.5,29.93,ESE,115,0.0,0.0,86,0.00,,,0.00,0,Wunderground v.1.15,2013-08-12 03:50:00,
2013-08-11 23:00:00,79.2,74.6,29.93,ESE,115,0.0,0.0,86,0.00,,,0.00,0,Wunderground v.1.15,2013-08-12 04:00:00,
2013-08-11 23:05:00,79.3,74.7,29.93,ESE,115,1.0,4.0,86,0.00,,,0.00,0,Wunderground v.1.15,2013-08-12 04:05:00,
2013-08-11 23:15:00,79.3,74.4,29.93,ESE,115,1.0,3.0,85,0.00,,,0.00,0,Wunderground v.1.15,2013-08-12 04:15:00,
2013-08-11 23:20:00,79.3,74.4,29.93,ESE,116,1.0,1.0,85,0.00,,,0.00,0,Wunderground v.1.15,2013-08-12 04:20:00,
2013-08-11 23:25:00,79.4,74.8,29.93,ESE,116,1.0,1.0,86,0.00,,,0.00,0,Wunderground v.1.15,2013-08-12 04:25:00,
2013-08-11 23:30:00,79.3,74.7,29.93,ESE,117,1.0,2.0,86,0.00,,,0.00,0,Wunderground v.1.15,2013-08-12 04:30:00,
2013-08-11 23:35:00,79.3,74.7,29.93,ESE,117,2.0,2.0,86,0.00,,,0.00,0,Wunderground v.1.15,2013-08-12 04:35:00,
2013-08-11 23:40:00,79.3,74.7,29.93,ESE,117,1.0,1.0,86,0.00,,,0.00,0,Wunderground v.1.15,2013-08-12 04:40:00,
2013-08-11 23:45:00,79.2,74.6,29.93,ESE,117,1.0,1.0,86,0.00,,,0.00,0,Wunderground v.1.15,2013-08-12 04:45:00,
2013-08-11 23:50:00,79.0,74.5,29.93,ESE,117,1.0,5.0,86,0.00,,,0.00,0,Wunderground v.1.15,2013-08-12 04:50:00,
2013-08-11 23:55:00,78.9,74.4,29.93,ESE,119,2.0,5.0,86,0.00,,,0.00,0,Wunderground v.1.15,2013-08-12 04:55:00,